| time (UTC) | temp F | wind direction | speed MPH | gust MPH | rain 1hr in | rain 24hr in | rain mn in | humidity % | barometer mb |
| 20260507114531 | 51 | 0 | 0.0 | 0.0 | 0.00 | 0.10 | 0.00 | 84 | 1019.9 |
| 20260507113028 | 51 | 0 | 0.0 | 0.0 | 0.00 | 0.10 | 0.00 | 84 | 1019.6 |
| 20260507111528 | 52 | 0 | 0.0 | 4.0 | 0.00 | 0.10 | 0.00 | 84 | 1019.6 |
| 20260507083028 | 55 | 188 | 2.0 | 7.0 | 0.00 | 0.10 | 0.00 | 79 | 1018.0 |
| 20260507081528 | 55 | 169 | 2.0 | 8.0 | 0.00 | 0.10 | 0.00 | 79 | 1017.8 |
| 20260507080028 | 55 | 141 | 3.0 | 10.0 | 0.00 | 0.10 | 0.00 | 80 | 1017.6 |
| 20260507074528 | 55 | 192 | 3.0 | 8.0 | 0.00 | 0.10 | 0.00 | 80 | 1017.5 |
| 20260507073031 | 56 | 172 | 4.0 | 9.0 | 0.00 | 0.10 | 0.00 | 79 | 1017.4 |
| 20260507071532 | 56 | 188 | 5.0 | 9.0 | 0.00 | 0.10 | 0.00 | 79 | 1017.6 |
| 20260507070032 | 56 | 172 | 4.0 | 7.0 | 0.00 | 0.10 | 0.00 | 79 | 1017.6 |
| 20260507064544 | 56 | 178 | 2.0 | 9.0 | 0.00 | 0.10 | 0.00 | 78 | 1017.4 |
| 20260507063030 | 56 | 187 | 3.0 | 6.0 | 0.00 | 0.10 | 0.00 | 78 | 1017.2 |
| 20260507061530 | 57 | 154 | 3.0 | 8.0 | 0.00 | 0.10 | 0.00 | 77 | 1017.3 |
| 20260507060028 | 57 | 176 | 4.0 | 9.0 | 0.00 | 0.10 | 0.00 | 76 | 1017.0 |
| 20260507054529 | 57 | 213 | 5.0 | 9.0 | 0.00 | 0.10 | 0.00 | 76 | 1017.2 |
| 20260507053028 | 58 | 204 | 4.0 | 9.0 | 0.00 | 0.10 | 0.00 | 75 | 1017.2 |
| 20260507051528 | 58 | 186 | 5.0 | 14.0 | 0.00 | 0.10 | 0.00 | 75 | 1017.3 |
| 20260507050038 | 58 | 202 | 4.0 | 9.0 | 0.00 | 0.10 | 0.00 | 76 | 1017.3 |
| 20260507044527 | 59 | 179 | 4.0 | 11.0 | 0.00 | 0.10 | 0.10 | 75 | 1017.2 |
| 20260507043027 | 59 | 160 | 6.0 | 12.0 | 0.00 | 0.10 | 0.10 | 75 | 1017.5 |
| 20260507041530 | 59 | 169 | 4.0 | 12.0 | 0.00 | 0.10 | 0.10 | 75 | 1017.7 |
| 20260507040029 | 59 | 139 | 6.0 | 11.0 | 0.00 | 0.10 | 0.10 | 75 | 1017.7 |
| 20260507034529 | 59 | 124 | 7.0 | 12.0 | 0.00 | 0.10 | 0.10 | 75 | 1017.7 |
| 20260507033028 | 59 | 147 | 5.0 | 12.0 | 0.00 | 0.10 | 0.10 | 75 | 1017.6 |
| 20260507031527 | 59 | 182 | 4.0 | 15.0 | 0.00 | 0.10 | 0.10 | 75 | 1017.5 |
| 20260507030030 | 59 | 175 | 6.0 | 14.0 | 0.00 | 0.10 | 0.10 | 75 | 1017.2 |
| 20260507024529 | 59 | 133 | 3.0 | 10.0 | 0.00 | 0.10 | 0.10 | 76 | 1017.0 |
| 20260507023026 | 59 | 191 | 5.0 | 12.0 | 0.00 | 0.10 | 0.10 | 76 | 1016.7 |
| 20260507021526 | 59 | 165 | 3.0 | 11.0 | 0.00 | 0.10 | 0.10 | 76 | 1016.5 |
| 20260507020031 | 59 | 165 | 6.0 | 11.0 | 0.00 | 0.10 | 0.10 | 76 | 1016.1 |
| 20260507014527 | 59 | 123 | 7.0 | 21.0 | 0.00 | 0.10 | 0.10 | 76 | 1016.0 |
| 20260507013027 | 59 | 155 | 5.0 | 12.0 | 0.00 | 0.10 | 0.10 | 77 | 1015.7 |
| 20260507011531 | 59 | 163 | 6.0 | 19.0 | 0.00 | 0.10 | 0.10 | 77 | 1015.4 |
| 20260507010038 | 59 | 204 | 4.0 | 12.0 | 0.00 | 0.10 | 0.10 | 77 | 1015.3 |
| 20260507004532 | 59 | 163 | 4.0 | 12.0 | 0.00 | 0.10 | 0.10 | 77 | 1015.2 |
| 20260507003028 | 59 | 146 | 6.0 | 15.0 | 0.00 | 0.10 | 0.10 | 77 | 1015.0 |
| 20260507000029 | 59 | 144 | 7.0 | 14.0 | 0.00 | 0.10 | 0.10 | 76 | 1014.7 |
| 20260506234530 | 59 | 223 | 5.0 | 11.0 | 0.00 | 0.10 | 0.10 | 76 | 1014.6 |
| 20260506233030 | 59 | 175 | 6.0 | 14.0 | 0.00 | 0.10 | 0.10 | 77 | 1014.6 |
| 20260506231528 | 59 | 211 | 5.0 | 13.0 | 0.00 | 0.10 | 0.10 | 77 | 1014.3 |
| 20260506230032 | 60 | 153 | 8.0 | 16.0 | 0.00 | 0.10 | 0.10 | 75 | 1013.9 |
| 20260506224535 | 59 | 111 | 3.0 | 12.0 | 0.00 | 0.10 | 0.10 | 75 | 1014.5 |
| 20260506223027 | 59 | 165 | 6.0 | 12.0 | 0.00 | 0.10 | 0.10 | 75 | 1014.3 |
| 20260506221529 | 59 | 162 | 6.0 | 12.0 | 0.00 | 0.10 | 0.10 | 75 | 1013.9 |
| 20260506220037 | 59 | 188 | 6.0 | 13.0 | 0.00 | 0.10 | 0.10 | 74 | 1013.9 |
| 20260506214528 | 60 | 144 | 6.0 | 13.0 | 0.00 | 0.10 | 0.10 | 74 | 1013.9 |
| 20260506213029 | 60 | 172 | 7.0 | 12.0 | 0.00 | 0.10 | 0.10 | 73 | 1013.6 |
| 20260506211534 | 61 | 88 | 4.0 | 10.0 | 0.00 | 0.10 | 0.10 | 72 | 1014.0 |
| 20260506210033 | 61 | 152 | 4.0 | 9.0 | 0.00 | 0.10 | 0.10 | 71 | 1013.9 |
| 20260506204556 | 61 | 157 | 3.0 | 12.0 | 0.00 | 0.10 | 0.10 | 74 | 1014.2 |
| 20260506203026 | 60 | 161 | 4.0 | 12.0 | 0.00 | 0.10 | 0.10 | 74 | 1014.1 |
| 20260506201536 | 59 | 141 | 6.0 | 10.0 | 0.00 | 0.10 | 0.10 | 75 | 1014.9 |
| 20260506200030 | 59 | 131 | 3.0 | 12.0 | 0.00 | 0.10 | 0.10 | 77 | 1014.6 |
| 20260506194528 | 58 | 70 | 3.0 | 9.0 | 0.00 | 0.10 | 0.10 | 79 | 1014.6 |
| 20260506193028 | 57 | 80 | 2.0 | 6.0 | 0.00 | 0.10 | 0.10 | 79 | 1014.9 |
| 20260506191528 | 57 | 89 | 3.0 | 8.0 | 0.00 | 0.10 | 0.10 | 78 | 1015.2 |
| 20260506190031 | 57 | 142 | 3.0 | 9.0 | 0.00 | 0.10 | 0.10 | 79 | 1015.0 |
| 20260506184527 | 57 | 130 | 5.0 | 12.0 | 0.00 | 0.10 | 0.10 | 79 | 1014.7 |
| 20260506183025 | 56 | 139 | 5.0 | 10.0 | 0.00 | 0.10 | 0.10 | 80 | 1013.8 |
| 20260506181528 | 56 | 150 | 8.0 | 16.0 | 0.00 | 0.10 | 0.10 | 81 | 1013.3 |
| 20260506180033 | 55 | 178 | 6.0 | 14.0 | 0.00 | 0.10 | 0.10 | 82 | 1013.3 |
| 20260506174533 | 55 | 136 | 5.0 | 13.0 | 0.00 | 0.10 | 0.10 | 82 | 1014.0 |
| 20260506173028 | 55 | 153 | 5.0 | 15.0 | 0.00 | 0.10 | 0.10 | 82 | 1014.6 |
| 20260506171539 | 55 | 170 | 4.0 | 13.0 | 0.00 | 0.10 | 0.10 | 82 | 1014.8 |
| 20260506170027 | 54 | 161 | 6.0 | 15.0 | 0.00 | 0.10 | 0.10 | 82 | 1014.3 |
| 20260506164528 | 54 | 159 | 6.0 | 15.0 | 0.01 | 0.10 | 0.10 | 82 | 1014.8 |
| 20260506163028 | 55 | 119 | 5.0 | 10.0 | 0.10 | 0.10 | 0.10 | 82 | 1015.0 |
| 20260506161532 | 55 | 0 | 2.0 | 9.0 | 0.10 | 0.10 | 0.10 | 83 | 1015.1 |
| 20260506160032 | 54 | 280 | 2.0 | 12.0 | 0.10 | 0.10 | 0.10 | 82 | 1014.6 |
| 20260506154533 | 54 | 167 | 8.0 | 15.0 | 0.09 | 0.09 | 0.09 | 79 | 1014.0 |
| 20260506153027 | 54 | 0 | 1.0 | 9.0 | 0.00 | 0.00 | 0.00 | 77 | 1016.5 |
| 20260506151533 | 54 | 73 | 3.0 | 10.0 | 0.00 | 0.00 | 0.00 | 77 | 1015.3 |
| 20260506150028 | 54 | 232 | 2.0 | 14.0 | 0.00 | 0.00 | 0.00 | 77 | 1015.0 |
| 20260506144539 | 54 | 96 | 3.0 | 10.0 | 0.00 | 0.00 | 0.00 | 77 | 1015.1 |
| 20260506143028 | 54 | 146 | 6.0 | 11.0 | 0.00 | 0.00 | 0.00 | 77 | 1014.7 |
| 20260506141530 | 54 | 117 | 5.0 | 12.0 | 0.00 | 0.00 | 0.00 | 76 | 1014.4 |
| 20260506140033 | 54 | 146 | 5.0 | 11.0 | 0.00 | 0.00 | 0.00 | 76 | 1014.0 |
| 20260506134528 | 54 | 89 | 4.0 | 15.0 | 0.00 | 0.00 | 0.00 | 76 | 1014.0 |
| 20260506133031 | 54 | 142 | 4.0 | 11.0 | 0.00 | 0.00 | 0.00 | 77 | 1013.8 |
| 20260506131534 | 54 | 120 | 3.0 | 10.0 | 0.00 | 0.00 | 0.00 | 78 | 1013.6 |
| 20260506130030 | 54 | 111 | 7.0 | 14.0 | 0.00 | 0.00 | 0.00 | 77 | 1013.5 |
| 20260506124533 | 54 | 82 | 5.0 | 13.0 | 0.00 | 0.00 | 0.00 | 76 | 1013.3 |
| 20260506123029 | 54 | 167 | 4.0 | 14.0 | 0.00 | 0.00 | 0.00 | 76 | 1013.2 |
| 20260506121527 | 55 | 166 | 6.0 | 14.0 | 0.00 | 0.00 | 0.00 | 75 | 1013.0 |
| 20260506120029 | 55 | 172 | 6.0 | 14.0 | 0.00 | 0.00 | 0.00 | 74 | 1013.1 |